Weather History for Slayton, MN

Change the Weather History Date:

Friday, December 13, 2013

  Actual Average (KOTG) Record (KOTG)
Temperature  
Mean Temperature 11 °F -  
Max Temperature 14 °F 28 °F 48 °F (1998)
Min Temperature 8 °F 14 °F -18 °F (1985)
Degree Days  
Heating Degree Days 54    
Moisture  
Dew Point 9 °F    
Average Humidity 90    
Maximum Humidity 95    
Minimum Humidity 84    
Precipitation  
Precipitation 0.00 in - - ()
Sea Level Pressure  
Sea Level Pressure 30.07 in    
Wind  
Wind Speed 8 mph (NE)    
Max Wind Speed 16 mph    
Max Gust Speed 22 mph    
Visibility 8 miles    
Events Snow    
Averages and records for this station are not official NWS values.
T = Trace of Precipitation, MM = Missing Value Source: NWS Daily Summary

Daily Weather History Graph

Daily Weather History Graph

Search for Another Location

Airport:

Trip Planner

Search our weather history database for the weather conditions in past years. The results will help you decide how hot, cold, wet, or windy it might be!

Date:

Astronomy

Dec. 13, 2013 Rise Set
Actual Time 7:49 AM CST 4:45 PM CST
Civil Twilight 7:16 AM CST 5:18 PM CST
Nautical Twilight 6:40 AM CST 5:54 PM CST
Astronomical Twilight 6:05 AM CST 6:29 PM CST
Moon 2:33 PM CST (12/13) 4:07 AM CST (12/13)
Length of Visible Light 10h 01m
Length of Day
8h 55m
Waxing Gibbous, 88% of the Moon is Illuminated
Dec 13
Waxing Gibbous
Dec 17
Full
Dec 25
Last Quarter
Jan 1
New
Jan 7
First Quarter

Hourly Weather History & Observations

Time (CST) Temp. Windchill Dew Point Humidity Pressure Visibility Wind Dir Wind Speed Gust Speed Precip Events Conditions
12:14 AM 11.1 °F - 9.3 °F 92% 30.04 in 10.0 mi Calm Calm - N/A   Clear
12:34 AM 11.7 °F - 10.2 °F 94% 30.04 in 7.0 mi Calm Calm - N/A   Clear
12:53 AM 11.7 °F - 10.4 °F 95% 30.04 in 7.0 mi Calm Calm - N/A   Clear
1:14 AM 10.6 °F - 9.1 °F 94% 30.01 in 7.0 mi Calm Calm - N/A   Clear
1:33 AM 9.3 °F - 7.5 °F 92% 30.01 in 7.0 mi Calm Calm - N/A   Clear
1:54 AM 9.1 °F 2.6 °F 7.5 °F 93% 30.02 in 7.0 mi SW 3.5 mph - N/A   Clear
2:13 AM 10.4 °F - 9.0 °F 94% 30.02 in 7.0 mi Calm Calm - N/A   Clear
2:34 AM 9.0 °F -4.2 °F 7.5 °F 94% 30.02 in 10.0 mi North 9.2 mph - N/A   Clear
2:53 AM 10.4 °F -1.5 °F 8.6 °F 92% 30.03 in 10.0 mi North 8.1 mph - N/A   Clear
3:15 AM 10.4 °F 0.8 °F 8.6 °F 92% 30.02 in 10.0 mi North 5.8 mph - N/A   Clear
3:34 AM 10.6 °F -0.2 °F 9.0 °F 93% 30.02 in 7.0 mi North 6.9 mph - N/A   Clear
3:54 AM 11.1 °F -1.6 °F 9.5 °F 93% 30.01 in 7.0 mi North 9.2 mph - N/A   Mostly Cloudy
4:14 AM 10.8 °F 0.0 °F 9.1 °F 93% 30.01 in 5.0 mi North 6.9 mph - N/A   Overcast
4:34 AM 11.3 °F -1.3 °F 9.7 °F 93% 30.01 in 5.0 mi North 9.2 mph - N/A   Overcast
4:54 AM 11.7 °F -1.7 °F 10.0 °F 93% 30.02 in 7.0 mi NNE 10.4 mph - N/A   Mostly Cloudy
5:14 AM 11.1 °F -1.6 °F 9.5 °F 93% 30.02 in 10.0 mi NE 9.2 mph - N/A   Scattered Clouds
5:34 AM 10.9 °F -0.8 °F 9.3 °F 93% 30.03 in 10.0 mi NE 8.1 mph - N/A   Clear
5:55 AM 11.1 °F -1.6 °F 9.5 °F 93% 30.03 in 10.0 mi NE 9.2 mph - N/A   Clear
6:14 AM 11.3 °F -1.3 °F 9.5 °F 92% 30.03 in 10.0 mi ENE 9.2 mph - N/A   Clear
6:34 AM 11.3 °F -2.2 °F 9.5 °F 92% 30.03 in 10.0 mi NE 10.4 mph - N/A   Clear
6:54 AM 10.9 °F -4.1 °F 9.0 °F 92% 30.02 in 10.0 mi NNE 12.7 mph - N/A   Clear
7:14 AM 10.4 °F -1.5 °F 8.6 °F 92% 30.04 in 10.0 mi NNE 8.1 mph - N/A   Clear
7:35 AM 10.0 °F -2.9 °F 8.2 °F 92% 30.04 in 10.0 mi NE 9.2 mph - N/A   Clear
7:54 AM 9.5 °F -5.2 °F 7.7 °F 92% 30.04 in 10.0 mi NE 11.5 mph - N/A   Clear
8:14 AM 9.9 °F -4.0 °F 8.1 °F 92% 30.04 in 10.0 mi NE 10.4 mph - N/A   Clear
8:34 AM 9.9 °F -4.7 °F 8.1 °F 92% 30.04 in 10.0 mi NE 11.5 mph - N/A   Clear
8:55 AM 10.2 °F -4.3 °F 8.6 °F 93% 30.04 in 7.0 mi NE 11.5 mph - N/A   Clear
9:14 AM 10.8 °F -4.3 °F 9.0 °F 92% 30.05 in 7.0 mi NE 12.7 mph 17.3 mph N/A   Clear
9:34 AM 11.3 °F -2.9 °F 9.5 °F 92% 30.06 in 7.0 mi ENE 11.5 mph 17.3 mph N/A   Clear
9:54 AM 11.7 °F -3.2 °F 10.0 °F 93% 30.05 in 7.0 mi NE 12.7 mph - N/A   Clear
10:14 AM 12.2 °F -4.3 °F 10.4 °F 92% 30.04 in 5.0 mi ENE 16.1 mph 19.6 mph N/A   Clear
10:35 AM 12.2 °F -1.8 °F 10.4 °F 92% 30.07 in 5.0 mi NE 11.5 mph - N/A   Clear
10:54 AM 12.9 °F -2.2 °F 10.4 °F 90% 30.07 in 5.0 mi NE 13.8 mph - N/A   Scattered Clouds
11:15 AM 13.1 °F -2.0 °F 10.4 °F 89% 30.06 in 5.0 mi NE 13.8 mph - N/A   Overcast
11:35 AM 14.0 °F -0.8 °F 10.9 °F 88% 30.06 in 5.0 mi NE 13.8 mph - N/A   Overcast
11:54 AM 14.5 °F -0.7 °F 11.1 °F 86% 30.06 in 7.0 mi NE 15.0 mph - N/A   Overcast
12:15 PM 14.5 °F -0.2 °F 10.9 °F 86% 30.05 in 7.0 mi NE 13.8 mph 19.6 mph N/A   Overcast
12:34 PM 14.5 °F 0.5 °F 10.8 °F 85% 30.05 in 7.0 mi NE 12.7 mph 19.6 mph N/A   Overcast
12:54 PM 14.2 °F -1.2 °F 10.6 °F 86% 30.05 in 5.0 mi NNE 15.0 mph 18.4 mph N/A   Overcast
1:13 PM 14.4 °F 0.2 °F 10.8 °F 86% 30.05 in 7.0 mi NE 12.7 mph - N/A   Overcast
1:34 PM 14.2 °F -1.2 °F 10.2 °F 84% 30.05 in 7.0 mi NNE 15.0 mph - N/A   Scattered Clouds
1:54 PM 14.0 °F -0.8 °F 10.2 °F 85% 30.04 in 7.0 mi NE 13.8 mph - N/A   Scattered Clouds
2:14 PM 14.5 °F -0.2 °F 10.6 °F 84% 30.04 in 7.0 mi NE 13.8 mph 21.9 mph N/A   Clear
2:33 PM 14.9 °F 0.9 °F 11.3 °F 86% 30.04 in 7.0 mi NNE 12.7 mph 21.9 mph N/A   Mostly Cloudy
2:55 PM 14.2 °F 0.7 °F 10.9 °F 87% 30.05 in 7.0 mi NE 11.5 mph - N/A   Overcast
3:14 PM 14.0 °F 0.5 °F 10.8 °F 87% 30.05 in 7.0 mi NE 11.5 mph 20.7 mph N/A   Overcast
3:34 PM 13.8 °F 0.2 °F 10.4 °F 86% 30.06 in 7.0 mi NE 11.5 mph - N/A   Overcast
3:54 PM 13.1 °F -1.4 °F 10.2 °F 88% 30.07 in 7.0 mi NE 12.7 mph 18.4 mph N/A   Overcast
4:14 PM 12.2 °F -3.1 °F 9.5 °F 89% 30.08 in 7.0 mi NE 13.8 mph - N/A   Overcast
4:34 PM 11.3 °F -2.2 °F 8.6 °F 89% 30.08 in 7.0 mi NE 10.4 mph - N/A   Overcast
4:54 PM 11.3 °F -3.6 °F 8.6 °F 89% 30.09 in 10.0 mi NE 12.7 mph - N/A   Overcast
5:14 PM 11.1 °F -3.9 °F 8.6 °F 90% 30.09 in 10.0 mi NE 12.7 mph 18.4 mph N/A   Overcast
5:34 PM 11.1 °F -3.2 °F 8.6 °F 90% 30.10 in 7.0 mi NNE 11.5 mph 17.3 mph N/A   Overcast
5:55 PM 10.8 °F -3.6 °F 8.2 °F 90% 30.11 in 10.0 mi NE 11.5 mph 17.3 mph N/A   Overcast
6:14 PM 10.4 °F -4.8 °F 7.7 °F 89% 30.12 in 10.0 mi NNE 12.7 mph 21.9 mph N/A   Overcast
6:34 PM 10.4 °F -4.8 °F 7.7 °F 89% 30.12 in 10.0 mi NE 12.7 mph - N/A   Overcast
6:55 PM 10.4 °F -4.1 °F 7.7 °F 89% 30.13 in 7.0 mi NE 11.5 mph - N/A   Overcast
7:15 PM 9.9 °F -4.7 °F 7.2 °F 89% 30.14 in 10.0 mi NNE 11.5 mph 19.6 mph N/A   Overcast
7:34 PM 9.5 °F -5.2 °F 6.8 °F 89% 30.14 in 10.0 mi NE 11.5 mph - N/A   Overcast
7:54 PM 9.3 °F -6.1 °F 6.6 °F 89% 30.14 in 10.0 mi NNE 12.7 mph 16.1 mph N/A   Overcast
8:14 PM 9.1 °F -6.4 °F 6.4 °F 89% 30.15 in 10.0 mi NE 12.7 mph 17.3 mph N/A   Overcast
8:34 PM 9.1 °F -5.6 °F 6.4 °F 89% 30.16 in 10.0 mi NNE 11.5 mph - N/A   Overcast
8:54 PM 8.8 °F -6.1 °F 6.1 °F 89% 30.17 in 10.0 mi NNE 11.5 mph 16.1 mph N/A   Overcast
9:14 PM 8.6 °F -4.7 °F 5.9 °F 89% 30.17 in 10.0 mi NNE 9.2 mph 17.3 mph N/A   Overcast
9:35 PM 8.6 °F -6.3 °F 5.9 °F 89% 30.18 in 10.0 mi NNE 11.5 mph - N/A   Overcast
9:54 PM 8.6 °F -6.3 °F 5.9 °F 89% 30.18 in 7.0 mi NNE 11.5 mph - N/A   Overcast
10:15 PM 8.6 °F -5.5 °F 5.9 °F 89% 30.18 in 7.0 mi NNE 10.4 mph 16.1 mph N/A   Overcast
10:35 PM 8.6 °F -6.3 °F 5.9 °F 89% 30.18 in 5.0 mi NNE 11.5 mph - N/A Snow Light Snow
10:53 PM 8.6 °F -3.7 °F 5.9 °F 89% 30.19 in 3.0 mi NNE 8.1 mph - N/A Snow Light Snow
11:14 PM 8.6 °F -4.7 °F 5.9 °F 89% 30.19 in 3.0 mi NNE 9.2 mph - N/A Snow Light Snow
11:34 PM 8.6 °F -5.5 °F 5.9 °F 89% 30.19 in 2.5 mi NNE 10.4 mph - N/A Snow Light Snow
11:54 PM 8.6 °F -5.5 °F 5.9 °F 89% 30.19 in 2.5 mi North 10.4 mph - N/A Snow Light Snow